When you browse on this site, cookies collect data to enhance your experience and personalize the content and advertising you see.
Visit our Privacy Policy to learn more. By continuing to use the site, you agree to this use of cookies and data.
  • Em Portugal
  • Lista de países
  • Para 7 dias
  • Temperatura da água
  • Mapa do tempo
  • Widgets de tempo
  • user-avatar
    Iniciar Sessão

    Previsão horária em Adelaide

    Hoje, 18 Novembro, Segunda-feira

    Tempo Temperatura Precipitação Vento Pressão Humidade
    00:00 +13°C° 0 mm 2 m/s 761 mmHg 74%
    01:00 +14°C° 0 mm 2 m/s 760 mmHg 71%
    02:00 +14°C° 0 mm 2 m/s 760 mmHg 68%
    03:00 +13°C° 0 mm 3 m/s 759 mmHg 66%
    04:00 +14°C° 0 mm 3 m/s 759 mmHg 61%
    05:00 +16°C° 0 mm 3 m/s 759 mmHg 56%
    06:00 +17°C° 0 mm 3 m/s 759 mmHg 52%
    07:00 +20°C° 0 mm 3 m/s 759 mmHg 45%
    08:00 +22°C° 0 mm 3 m/s 758 mmHg 38%
    09:00 +27°C° 0 mm 3 m/s 758 mmHg 29%
    10:00 +28°C° 0 mm 3 m/s 758 mmHg 27%
    11:00 +29°C° 0 mm 3 m/s 758 mmHg 26%
    12:00 +30°C° 0 mm 3 m/s 757 mmHg 24%
    13:00 +30°C° 0 mm 3 m/s 756 mmHg 24%
    14:00 +30°C° 0 mm 3 m/s 756 mmHg 24%
    15:00 +31°C° 0 mm 2 m/s 755 mmHg 23%
    16:00 +29°C° 0 mm 3 m/s 755 mmHg 25%
    17:00 +27°C° 0 mm 3 m/s 755 mmHg 28%
    18:00 +26°C° 0 mm 3 m/s 755 mmHg 30%
    19:00 +24°C° 0 mm 3 m/s 755 mmHg 37%
    20:00 +21°C° 0 mm 3 m/s 755 mmHg 45%
    21:00 +20°C° 0 mm 2 m/s 755 mmHg 45%
    22:00 +19°C° 0 mm 2 m/s 755 mmHg 50%
    23:00 +19°C° 0 mm 1 m/s 756 mmHg 55%

    Amanhã, 19 Novembro, Terça-feira

    Tempo Temperatura Precipitação Vento Pressão Humidade
    00:00 +19°C° 0 mm 1 m/s 756 mmHg 61%
    01:00 +18°C° 0 mm 1 m/s 756 mmHg 62%
    02:00 +18°C° 0 mm 1 m/s 755 mmHg 64%
    03:00 +16°C° 0 mm 1 m/s 755 mmHg 66%
    04:00 +18°C° 0 mm 1 m/s 755 mmHg 64%
    05:00 +19°C° 0 mm 1 m/s 756 mmHg 62%
    06:00 +19°C° 0 mm 1 m/s 756 mmHg 61%
    07:00 +22°C° 0 mm 1 m/s 756 mmHg 53%
    08:00 +24°C° 0 mm 2 m/s 756 mmHg 46%
    09:00 +27°C° 0 mm 2 m/s 757 mmHg 39%
    10:00 +27°C° 0 mm 2 m/s 756 mmHg 37%
    11:00 +28°C° 0 mm 3 m/s 756 mmHg 35%
    12:00 +29°C° 0 mm 3 m/s 756 mmHg 34%
    13:00 +29°C° 0 mm 3 m/s 755 mmHg 34%
    14:00 +29°C° 0 mm 3 m/s 755 mmHg 35%
    15:00 +29°C° 0 mm 2 m/s 754 mmHg 36%
    16:00 +27°C° 0 mm 3 m/s 754 mmHg 42%
    17:00 +25°C° 0 mm 3 m/s 755 mmHg 48%
    18:00 +24°C° 0 mm 3 m/s 755 mmHg 54%
    19:00 +22°C° 0 mm 3 m/s 755 mmHg 54%
    20:00 +21°C° 0 mm 2 m/s 755 mmHg 55%
    21:00 +20°C° 0 mm 2 m/s 755 mmHg 55%
    22:00 +20°C° 0 mm 3 m/s 755 mmHg 52%
    23:00 +21°C° 0 mm 3 m/s 754 mmHg 48%

    Depois de amanhã, 20 Novembro, Quarta-feira

    Tempo Temperatura Precipitação Vento Pressão Humidade
    00:00 +21°C° 0 mm 3 m/s 753 mmHg 44%
    01:00 +22°C° 0 mm 4 m/s 753 mmHg 43%
    02:00 +23°C° 0 mm 4 m/s 752 mmHg 41%
    03:00 +23°C° 0 mm 5 m/s 751 mmHg 40%
    04:00 +26°C° 0 mm 5 m/s 751 mmHg 37%
    05:00 +27°C° 0 mm 5 m/s 751 mmHg 34%
    06:00 +28°C° 0 mm 5 m/s 752 mmHg 31%
    07:00 +32°C° 0 mm 5 m/s 751 mmHg 27%
    08:00 +34°C° 0 mm 5 m/s 751 mmHg 22%
    09:00 +38°C° 0 mm 6 m/s 751 mmHg 17%
    10:00 +39°C° 0 mm 7 m/s 750 mmHg 16%
    11:00 +40°C° 0 mm 8 m/s 750 mmHg 15%
    12:00 +41°C° 0 mm 8 m/s 749 mmHg 14%
    13:00 +42°C° 0 mm 9 m/s 748 mmHg 14%
    14:00 +42°C° 0 mm 9 m/s 747 mmHg 13%
    15:00 +42°C° 0 mm 9 m/s 746 mmHg 13%
    16:00 +40°C° 0 mm 8 m/s 746 mmHg 14%
    17:00 +39°C° 0 mm 7 m/s 746 mmHg 15%
    18:00 +38°C° 0 mm 6 m/s 746 mmHg 15%
    19:00 +36°C° 0 mm 6 m/s 746 mmHg 16%
    20:00 +35°C° 0 mm 6 m/s 746 mmHg 16%
    21:00 +34°C° 0 mm 5 m/s 745 mmHg 16%
    22:00 +34°C° 0 mm 6 m/s 745 mmHg 16%
    23:00 +34°C° 0 mm 6 m/s 744 mmHg 16%

    21 Novembro, Quinta-feira

    Tempo Temperatura Precipitação Vento Pressão Humidade
    00:00 +34°C° 0 mm 7 m/s 744 mmHg 15%
    01:00 +33°C° 0 mm 7 m/s 744 mmHg 16%
    02:00 +33°C° 0 mm 6 m/s 744 mmHg 17%
    03:00 +33°C° 0 mm 6 m/s 744 mmHg 18%
    04:00 +28°C° 0 mm 7 m/s 745 mmHg 37%
    05:00 +24°C° 0 mm 7 m/s 747 mmHg 55%
    06:00 +20°C° 0 mm 8 m/s 748 mmHg 73%
    07:00 +18°C° 0 mm 8 m/s 750 mmHg 73%
    08:00 +18°C° 0 mm 9 m/s 751 mmHg 74%
    09:00 +17°C° 0 mm 9 m/s 753 mmHg 75%
    10:00 +18°C° 0 mm 8 m/s 753 mmHg 66%
    11:00 +21°C° 0 mm 8 m/s 754 mmHg 56%
    12:00 +22°C° 0 mm 7 m/s 754 mmHg 47%
    13:00 +21°C° 0 mm 7 m/s 754 mmHg 48%
    14:00 +21°C° 0 mm 7 m/s 754 mmHg 49%
    15:00 +20°C° 0 mm 7 m/s 754 mmHg 50%
    16:00 +18°C° 0 mm 7 m/s 755 mmHg 53%
    17:00 +17°C° 0 mm 6 m/s 756 mmHg 56%
    18:00 +16°C° 0 mm 6 m/s 757 mmHg 58%
    19:00 +15°C° 0 mm 5 m/s 757 mmHg 64%
    20:00 +13°C° 0 mm 4 m/s 758 mmHg 71%
    21:00 +12°C° 0 mm 4 m/s 759 mmHg 77%
    22:00 +11°C° 0 mm 3 m/s 759 mmHg 78%
    23:00 +11°C° 0 mm 3 m/s 759 mmHg 79%

    22 Novembro, Sexta-feira

    Tempo Temperatura Precipitação Vento Pressão Humidade
    00:00 +11°C° 0 mm 3 m/s 759 mmHg 80%
    01:00 +10°C° 0 mm 3 m/s 759 mmHg 79%
    02:00 +10°C° 0 mm 2 m/s 759 mmHg 78%
    03:00 +10°C° 0 mm 2 m/s 759 mmHg 78%
    04:00 +12°C° 0 mm 2 m/s 760 mmHg 73%
    05:00 +13°C° 0 mm 2 m/s 760 mmHg 69%
    06:00 +14°C° 0 mm 2 m/s 760 mmHg 64%
    07:00 +15°C° 0 mm 2 m/s 760 mmHg 58%
    08:00 +17°C° 0 mm 3 m/s 760 mmHg 51%
    09:00 +18°C° 0 mm 3 m/s 760 mmHg 45%
    10:00 +19°C° 0 mm 3 m/s 760 mmHg 43%
    11:00 +19°C° 0 mm 4 m/s 760 mmHg 42%
    12:00 +20°C° 0 mm 4 m/s 760 mmHg 40%
    13:00 +20°C° 0 mm 4 m/s 759 mmHg 41%
    14:00 +20°C° 0 mm 4 m/s 759 mmHg 42%
    15:00 +20°C° 0 mm 4 m/s 759 mmHg 43%
    16:00 +19°C° 0 mm 4 m/s 759 mmHg 48%
    17:00 +18°C° 0 mm 4 m/s 760 mmHg 52%
    18:00 +17°C° 0 mm 4 m/s 760 mmHg 57%
    19:00 +16°C° 0 mm 3 m/s 760 mmHg 64%
    20:00 +13°C° 0 mm 3 m/s 761 mmHg 71%
    21:00 +12°C° 0 mm 3 m/s 761 mmHg 78%
    22:00 +13°C° 0 mm 2 m/s 761 mmHg 79%
    23:00 +13°C° 0 mm 2 m/s 761 mmHg 80%

    23 Novembro, Sábado

    Tempo Temperatura Precipitação Vento Pressão Humidade
    00:00 +12°C° 0 mm 2 m/s 761 mmHg 81%
    01:00 +12°C° 0 mm 1 m/s 761 mmHg 82%
    02:00 +12°C° 0 mm 1 m/s 760 mmHg 82%
    03:00 +12°C° 0 mm 1 m/s 760 mmHg 83%
    04:00 +13°C° 0 mm 1 m/s 760 mmHg 79%
    05:00 +14°C° 0 mm 1 m/s 761 mmHg 76%
    06:00 +15°C° 0 mm 1 m/s 761 mmHg 72%
    07:00 +16°C° 0 mm 1 m/s 761 mmHg 66%
    08:00 +18°C° 0 mm 2 m/s 761 mmHg 59%
    09:00 +20°C° 0 mm 2 m/s 761 mmHg 53%
    10:00 +20°C° 0 mm 3 m/s 761 mmHg 51%
    11:00 +21°C° 0 mm 3 m/s 761 mmHg 50%
    12:00 +22°C° 0 mm 3 m/s 760 mmHg 48%
    13:00 +22°C° 0 mm 4 m/s 760 mmHg 47%
    14:00 +22°C° 0 mm 5 m/s 760 mmHg 46%
    15:00 +22°C° 0 mm 6 m/s 760 mmHg 45%
    16:00 +21°C° 0 mm 5 m/s 760 mmHg 52%
    17:00 +20°C° 0 mm 5 m/s 760 mmHg 59%
    18:00 +18°C° 0 mm 4 m/s 761 mmHg 67%
    19:00 +17°C° 0 mm 4 m/s 761 mmHg 73%
    20:00 +15°C° 0 mm 4 m/s 762 mmHg 79%
    21:00 +13°C° 0 mm 4 m/s 762 mmHg 85%
    22:00 +13°C° 0 mm 3 m/s 762 mmHg 86%
    23:00 +12°C° 0 mm 3 m/s 761 mmHg 87%
    Mostrar mais